Location: Vallejo Gulch
(39.5721°N, 123.7181°W)
Time: 06:57:52
(UTC+00:00)

Daily predictions for brighter satellites

Satellite Brightness Start Highest point End
(mag) Time Altitude Azimuth Time Altitude Azimuth Time Altitude Azimuth
CZ-2D R/B 3.8 12:02:37 10° NNW 12:06:04 18° WNW 12:09:31 10° WSW
Cosmos 1844 Rocket 4.2 12:02:47 10° WNW 12:06:11 17° W 12:09:00 12° SW
Lacrosse 4 Rocket 2.1 12:07:39 10° S 12:11:34 51° ESE 12:15:35 10° NE
Cosmos 1766 Rocket 3.5 12:10:32 10° SSW 12:14:48 75° W 12:19:07 10° N
Cosmos 2360 Rocket 4.0 12:14:37 10° W 12:18:10 17° NW 12:21:45 10° N
Cosmos 2341 Rocket 4.1 12:12:43 10° SSW 12:18:49 59° W 12:24:59 10° N
TIMED 4.4 12:15:01 10° NNW 12:19:17 73° WSW 12:23:31 10° S
Cosmos 1437 Rocket 2.5 12:18:37 10° NNW 12:22:16 67° W 12:25:51 10° S
Cosmos 2366 rocket 4.1 12:16:17 10° SSW 12:22:27 63° W 12:28:36 10° N
Cosmos 1943 Rocket 4.0 12:17:15 10° N 12:22:30 38° ENE 12:27:43 10° SE
ALOS 4.2 12:20:19 10° NNW 12:22:46 14° WNW 12:25:12 10° W
OAO 3 Rocket 3.8 12:18:39 10° W 12:22:58 36° SSW 12:27:13 10° SE
ARGOS 3.4 12:17:33 10° NNE 12:22:59 74° ESE 12:28:23 10° S
Cosmos 1331 Rocket 4.3 12:19:42 10° S 12:24:47 71° ESE 12:29:54 10° NNE
Iridium 4 Rocket 3.9 12:21:46 10° SSW 12:27:27 58° W 12:32:51 10° N
H-2A R/B 2.6 12:25:25 10° N 12:29:57 39° WNW 12:34:28 10° SW
UNK 3.7 12:26:17 10° S 12:30:46 64° WSW 12:35:19 10° NNW
Timation 2 Rocket 4.2 12:24:19 10° NNW 12:30:54 89° ENE 12:37:41 10° SSE
Okean 3 Rocket 4.0 12:26:35 10° S 12:31:03 69° E 12:35:33 10° NNE
Cosmos 2219 Rocket 3.7 12:28:02 10° WSW 12:32:18 22° NW 12:36:35 10° N
Cosmos 1452 Rocket 3.8 12:27:47 10° S 12:32:59 71° ESE 12:38:14 10° NNE
Cosmos 1954 Rocket 4.3 12:30:12 10° NNW 12:35:06 43° WSW 12:40:01 10° S
Cosmos 676 Rocket 4.1 12:30:27 10° NNW 12:35:32 58° WSW 12:40:37 10° S
